Location: Boiro
(42.6475°N, 8.8834°W)
Time: 15:32:56
(UTC+02:00)

Explorer 7 - Pass Details

Date: 03 July 2022
Orbit: 482 x 668 km, 50.3° (Epoch: 15 August)

Event Time Altitude Azimuth Distance (km) Brightness Sun altitude
Rises 23:46:04 0° 230° (SW) 2,983 10.6 -13.2°
Reaches altitude 10° 23:48:25 10° 228° (SW) 2,082 9.7 -13.5°
Maximum altitude 23:53:14 71° 145° (SE) 706 7.1 -14.0°
Drops below altitude 10° 23:58:02 10° 62° (ENE) 2,081 9.7 -14.6°
Sets 00:00:22 0° 60° (ENE) 2,980 10.5 -14.9°
